Weather in Sadovskiy

Russia / Republic of Mordovia     54°18′53″N   45°28′27″E
temp.,
°C
wind,
m/s
gust,
m/s
humid.,
%
clouds,
%
prec.,
mm/h
press.,
hPa
HPBL,
m
7 march, sun
sun700:00−13wnw129896 0.1 101321
03:00−15w229884 0.1 101320
06:00−16wsw239612 0.0 101320
09:00−13sw489531 0.0 1012257
12:00−8sw7118797 0.0 1010597
15:00−7ssw8148898 0.0 1005811
18:00−6sw91594100 0.9 10021046
21:00−5sw101693100 2.0 9981039
8 march, mon
mon800:00−5ssw91794100 0.5 994866
03:00−4wsw101680100 1.1 993934
06:00−10wsw7169238 0.0 996535
09:00−8wsw8158769 0.1 999741
12:00−6wsw7118779 0.0 1001792
15:00−5wsw698485 0.0 10011033
18:00−8sw359391 0.1 100180
21:00−9wsw4109488 0.2 1003292
9 march, tue
tue900:00−12w5119469 0.0 1004223
03:00−16w469864 0.0 100694
06:00−17wnw349996 0.0 100968
09:00−15wnw369797 0.1 1010214
12:00−12wnw3594100 0.1 1011335
15:00−11nw4690100 0.1 1012538
18:00−13nnw2396100 0.1 101251
21:00−15nnw3796100 0.3 1015205
10 march, wed
wed1000:00−20nw3410067 0.0 101565
03:00−21nw3410083 0.1 101791
06:00−21nw3699100 0.1 1019171
09:00−20nnw4796100 0.2 1020347
12:00−19nw5693100 0.1 1022473
15:00−19nw5891100 0.1 1022555
18:00−24nnw359681 0.0 102468
21:00−26nw239845 0.0 102620
11 march, thu
thu1100:00−27wnw2310024 0.0 102619
03:00−27w339832 0.0 102725
06:00−25w479737 0.0 1027133
09:00−21wnw599455 0.0 1027271
12:00−16wnw69890 0.0 1027338
15:00−13w59860 0.0 1027421
18:00−16w47910 0.0 1028109
21:00−18wsw45920 0.0 103081